QPF
0.05 0.07 0.14 0.16 0.13 0.09 0.07 0.07 0.05 0.03 0.03 0.05 0.06 0.07 0.05 0.03 0.03 0.03 0.03 0.02 0.02 0.02 0.04 0.04 0.05 0.07 0.05 0.03 0.03 0.03 0.03 0.03 0.03 0.03 0.04 0.03 0.03 0.04 0.05 0.06 0.08 0.07 0.07
0.07 0.07 0.08 0.09 0.10 0.08 0.06 0.06 0.05 0.03 0.03 0.04 0.05 0.07 0.08 0.09 0.05 0.04 0.03 0.02 0.02 0.03 0.04 0.05 0.06 0.05 0.06 0.05 0.04 0.03 0.03 0.03 0.03 0.03 0.02 0.02 0.03 0.03 0.04 0.04 0.05 0.06 0.06
0.12 0.08 0.07 0.07 0.08 0.07 0.06 0.06 0.05 0.05 0.04 0.04 0.04 0.05 0.07 0.10 0.06 0.05 0.04 0.02 0.01 0.01 0.03 0.04 0.04 0.05 0.06 0.08 0.06 0.03 0.03 0.03 0.03 0.03 0.03 0.02 0.02 0.03 0.03 0.03 0.03 0.04 0.05
0.09 0.08 0.07 0.08 0.09 0.08 0.07 0.08 0.06 0.04 0.05 0.04 0.05 0.04 0.04 0.06 0.07 0.04 0.04 0.03 0.01 0.01 0.01 0.03 0.03 0.04 0.06 0.07 0.07 0.05 0.04 0.03 0.03 0.03 0.03 0.03 0.03 0.03 0.03 0.03 0.03 0.03 0.03
0.08 0.06 0.06 0.06 0.07 0.08 0.10 0.11 0.08 0.05 0.04 0.04 0.05 0.05 0.04 0.04 0.07 0.05 0.04 0.04 0.03 0.02 0.01 0.02 0.02 0.03 0.05 0.06 0.07 0.08 0.06 0.04 0.04 0.04 0.04 0.04 0.03 0.04 0.03 0.03 0.04 0.04 0.05
0.08 0.07 0.06 0.06 0.07 0.08 0.10 0.10 0.10 0.07 0.05 0.05 0.06 0.06 0.05 0.05 0.05 0.03 0.03 0.03 0.04 0.05 0.02 0.01 0.01 0.02 0.04 0.05 0.07 0.09 0.08 0.07 0.06 0.04 0.04 0.04 0.04 0.04 0.04 0.04 0.05 0.05 0.06
0.04 0.05 0.07 0.06 0.07 0.07 0.07 0.08 0.08 0.08 0.07 0.06 0.06 0.06 0.06 0.05 0.04 0.03 0.03 0.03 0.03 0.04 0.03 0.02 0.02 0.02 0.02 0.03 0.05 0.07 0.09 0.09 0.07 0.07 0.05 0.04 0.04 0.03 0.03 0.03 0.03 0.04 0.05
0.03 0.04 0.06 0.06 0.06 0.06 0.06 0.09 0.08 0.07 0.06 0.05 0.04 0.04 0.05 0.05 0.03 0.03 0.03 0.02 0.02 0.02 0.02 0.03 0.04 0.05 0.05 0.03 0.03 0.06 0.08 0.08 0.10 0.10 0.07 0.05 0.04 0.03 0.03 0.03 0.03 0.04 0.04
0.03 0.04 0.06 0.06 0.06 0.06 0.05 0.07 0.08 0.07 0.06 0.07 0.04 0.04 0.04 0.03 0.03 0.03 0.03 0.02 0.02 0.02 0.03 0.03 0.03 0.04 0.06 0.06 0.06 0.06 0.08 0.09 0.10 0.11 0.09 0.07 0.05 0.03 0.03 0.03 0.03 0.03 0.04
0.04 0.04 0.05 0.05 0.04 0.04 0.05 0.05 0.06 0.07 0.06 0.08 0.08 0.06 0.04 0.03 0.03 0.03 0.02 0.01 0.01 0.01 0.02 0.03 0.04 0.04 0.03 0.03 0.05 0.07 0.08 0.08 0.09 0.09 0.09 0.08 0.06 0.04 0.03 0.02 0.02 0.02 0.02
0.05 0.05 0.05 0.04 0.03 0.03 0.05 0.05 0.03 0.03 0.03 0.03 0.03 0.04 0.03 0.03 0.03 0.03 0.03 0.03 0.03 0.02 0.01 0.02 0.01 0.02 0.03 0.03 0.03 0.05 0.07 0.08 0.08 0.07 0.06 0.07 0.07 0.06 0.04 0.02 0.02 0.02 0.02
0.06 0.06 0.04 0.02 0.03 0.04 0.06 0.06 0.04 0.04 0.03 0.02 0.03 0.03 0.03 0.03 0.02 0.01 0.01 0.01 0.02 0.01 0.01 0.02 0.02 0.02 0.02 0.03 0.02 0.03 0.05 0.07 0.08 0.07 0.06 0.06 0.06 0.05 0.05 0.04 0.03 0.02 0.02
0.04 0.04 0.04 0.04 0.05 0.06 0.06 0.06 0.05 0.05 0.05 0.04 0.04 0.04 0.04 0.03 0.03 0.02 0.02 0.01 0.01 0.01 0.01 0.03 0.03 0.03 0.02 0.02 0.02 0.02 0.03 0.05 0.07 0.07 0.07 0.07 0.07 0.06 0.06 0.06 0.04 0.03 0.02
0.04 0.05 0.06 0.06 0.06 0.06 0.05 0.04 0.04 0.04 0.05 0.05 0.05 0.05 0.04 0.04 0.05 0.04 0.03 0.02 0.03 0.02 0.02 0.02 0.02 0.02 0.03 0.03 0.03 0.02 0.01 0.02 0.04 0.06 0.07 0.07 0.08 0.08 0.08 0.08 0.06 0.04 0.03
0.03 0.05 0.07 0.07 0.06 0.07 0.07 0.05 0.05 0.04 0.04 0.04 0.04 0.05 0.05 0.05 0.05 0.05 0.05 0.05 0.04 0.04 0.02 0.01 0.01 0.01 0.03 0.03 0.02 0.01 0.01 0.01 0.02 0.03 0.05 0.07 0.08 0.07 0.08 0.08 0.07 0.05 0.03
0.03 0.04 0.06 0.07 0.07 0.07 0.06 0.05 0.05 0.04 0.04 0.03 0.03 0.04 0.05 0.06 0.05 0.04 0.04 0.04 0.03 0.03 0.03 0.02 0.01 0.01 0.02 0.02 0.01 0.00 0.00 0.00 0.01 0.01 0.02 0.03 0.04 0.05 0.04 0.05 0.06 0.06 0.05
0.05 0.04 0.04 0.05 0.06 0.05 0.05 0.04 0.04 0.05 0.04 0.04 0.04 0.03 0.04 0.06 0.06 0.04 0.03 0.03 0.03 0.03 0.04 0.02 0.02 0.02 0.02 0.02 0.01 0.01 0.00 0.00 0.00 0.00 0.00 0.01 0.02 0.02 0.02 0.03 0.05 0.05 0.05
0.06 0.06 0.05 0.04 0.04 0.04 0.05 0.04 0.03 0.04 0.06 0.07 0.06 0.05 0.06 0.07 0.07 0.06 0.04 0.03 0.04 0.03 0.04 0.03 0.02 0.02 0.02 0.01 0.01 0.01 0.01 0.01 0.00 0.00 0.00 0.00 0.01 0.01 0.01 0.02 0.03 0.04 0.04
0.05 0.04 0.05 0.05 0.04 0.04 0.06 0.06 0.06 0.06 0.06 0.06 0.07 0.07 0.06 0.09 0.09 0.07 0.06 0.04 0.03 0.03 0.03 0.03 0.03 0.03 0.02 0.01 0.01 0.01 0.01 0.01 0.01 0.01 0.00 0.00 0.00 0.00 0.01 0.02 0.02 0.03 0.03
0.05 0.04 0.04 0.05 0.06 0.07 0.07 0.07 0.06 0.07 0.07 0.07 0.07 0.07 0.08 0.08 0.07 0.07 0.06 0.04 0.03 0.02 0.02 0.02 0.02 0.02 0.02 0.01 0.01 0.01 0.01 0.00 0.01 0.01 0.01 0.00 0.00 0.01 0.01 0.02 0.03 0.02 0.02
0.06 0.06 0.06 0.07 0.06 0.06 0.06 0.06 0.05 0.06 0.06 0.07 0.07 0.06 0.06 0.08 0.07 0.06 0.05 0.04 0.03 0.02 0.02 0.01 0.01 0.01 0.01 0.01 0.01 0.00 0.00 0.00 0.00 0.00 0.00 0.00 0.01 0.01 0.01 0.01 0.02 0.02 0.02
0.05 0.06 0.07 0.07 0.06 0.04 0.04 0.07 0.09 0.09 0.08 0.08 0.06 0.05 0.06 0.08 0.07 0.05 0.04 0.04 0.03 0.02 0.02 0.01 0.01 0.01 0.00 0.00 0.01 0.01 0.01 0.01 0.00 0.00 0.00 0.00 0.00 0.01 0.02 0.01 0.01 0.01 0.02
0.03 0.04 0.05 0.06 0.06 0.05 0.05 0.07 0.09 0.08 0.07 0.06 0.05 0.06 0.05 0.06 0.07 0.06 0.05 0.05 0.04 0.03 0.02 0.01 0.01 0.00 0.00 0.00 0.01 0.01 0.01 0.01 0.01 0.00 0.01 0.01 0.01 0.01 0.01 0.01 0.01 0.01 0.01
0.03 0.04 0.05 0.05 0.04 0.04 0.06 0.07 0.08 0.05 0.04 0.05 0.06 0.07 0.08 0.08 0.07 0.07 0.07 0.06 0.04 0.03 0.02 0.02 0.01 0.00 0.00 0.00 0.00 0.01 0.01 0.01 0.01 0.01 0.01 0.01 0.01 0.01 0.01 0.01 0.01 0.01 0.01
0.02 0.03 0.05 0.05 0.04 0.04 0.06 0.07 0.06 0.04 0.03 0.04 0.05 0.08 0.10 0.10 0.11 0.09 0.08 0.06 0.05 0.04 0.04 0.03 0.01 0.01 0.00 0.00 0.00 0.01 0.01 0.01 0.01 0.01 0.01 0.03 0.02 0.02 0.01 0.01 0.01 0.01 0.01
0.03 0.04 0.04 0.05 0.04 0.05 0.05 0.05 0.05 0.04 0.04 0.04 0.06 0.07 0.08 0.09 0.10 0.08 0.06 0.05 0.03 0.03 0.04 0.03 0.02 0.01 0.01 0.01 0.01 0.00 0.00 0.01 0.00 0.00 0.01 0.02 0.03 0.04 0.04 0.02 0.01 0.01 0.01
MSLP
1007.19 1007.12 1007.19 1007.45 1007.96 1008.69 1009.62 1010.67 1011.77 1012.83 1013.76 1014.56 1015.19 1015.70 1016.12 1016.50 1016.88 1017.28 1017.72 1018.17 1018.62 1019.04 1019.40 1019.70 1019.93 1020.10 1020.21 1020.29 1020.32 1020.34 1020.33 1020.32 1020.29 1020.25 1020.22 1020.19 1020.16 1020.12 1020.07 1019.99 1019.88 1019.73 1019.54
1008.00 1007.95 1008.03 1008.30 1008.79 1009.51 1010.41 1011.45 1012.54 1013.61 1014.58 1015.42 1016.11 1016.67 1017.13 1017.52 1017.88 1018.22 1018.57 1018.92 1019.26 1019.58 1019.86 1020.10 1020.29 1020.44 1020.55 1020.62 1020.67 1020.69 1020.69 1020.68 1020.67 1020.65 1020.65 1020.65 1020.66 1020.66 1020.64 1020.59 1020.50 1020.36 1020.18
1008.94 1008.94 1009.07 1009.36 1009.86 1010.55 1011.41 1012.40 1013.45 1014.48 1015.45 1016.30 1017.03 1017.64 1018.13 1018.53 1018.87 1019.17 1019.43 1019.67 1019.89 1020.09 1020.26 1020.42 1020.56 1020.68 1020.78 1020.86 1020.93 1020.98 1021.01 1021.02 1021.03 1021.04 1021.06 1021.09 1021.12 1021.14 1021.15 1021.11 1021.04 1020.91 1020.73
1009.93 1010.03 1010.23 1010.57 1011.08 1011.74 1012.55 1013.45 1014.41 1015.37 1016.28 1017.12 1017.86 1018.49 1019.02 1019.44 1019.78 1020.04 1020.23 1020.37 1020.48 1020.55 1020.62 1020.69 1020.76 1020.85 1020.94 1021.04 1021.14 1021.22 1021.28 1021.33 1021.37 1021.41 1021.45 1021.49 1021.53 1021.56 1021.57 1021.54 1021.46 1021.34 1021.17
1010.92 1011.13 1011.43 1011.84 1012.36 1012.99 1013.71 1014.51 1015.34 1016.18 1017.01 1017.79 1018.51 1019.15 1019.71 1020.17 1020.52 1020.77 1020.93 1021.00 1021.02 1021.00 1020.97 1020.95 1020.97 1021.02 1021.10 1021.21 1021.32 1021.44 1021.54 1021.63 1021.70 1021.76 1021.81 1021.86 1021.90 1021.92 1021.91 1021.87 1021.78 1021.65 1021.49
1011.88 1012.20 1012.60 1013.07 1013.60 1014.19 1014.82 1015.48 1016.16 1016.86 1017.56 1018.26 1018.94 1019.58 1020.16 1020.66 1021.06 1021.34 1021.50 1021.56 1021.53 1021.44 1021.35 1021.27 1021.22 1021.24 1021.30 1021.41 1021.55 1021.69 1021.82 1021.94 1022.04 1022.11 1022.17 1022.21 1022.24 1022.24 1022.21 1022.14 1022.04 1021.90 1021.73
1012.76 1013.18 1013.66 1014.18 1014.72 1015.26 1015.79 1016.31 1016.83 1017.37 1017.93 1018.52 1019.14 1019.77 1020.38 1020.94 1021.41 1021.75 1021.95 1022.03 1022.00 1021.90 1021.77 1021.65 1021.57 1021.55 1021.59 1021.69 1021.83 1021.98 1022.13 1022.27 1022.39 1022.47 1022.53 1022.57 1022.58 1022.55 1022.49 1022.40 1022.27 1022.11 1021.93
1013.54 1014.04 1014.59 1015.14 1015.67 1016.16 1016.59 1016.98 1017.34 1017.71 1018.13 1018.62 1019.17 1019.78 1020.42 1021.03 1021.57 1021.99 1022.28 1022.42 1022.44 1022.36 1022.23 1022.10 1022.00 1021.95 1021.97 1022.05 1022.18 1022.33 1022.48 1022.63 1022.75 1022.84 1022.91 1022.94 1022.93 1022.88 1022.79 1022.66 1022.50 1022.32 1022.14
1014.21 1014.75 1015.33 1015.90 1016.42 1016.85 1017.20 1017.47 1017.70 1017.93 1018.22 1018.60 1019.09 1019.67 1020.31 1020.97 1021.59 1022.10 1022.48 1022.71 1022.80 1022.77 1022.68 1022.56 1022.46 1022.40 1022.40 1022.45 1022.55 1022.69 1022.83 1022.98 1023.10 1023.20 1023.27 1023.29 1023.28 1023.21 1023.10 1022.94 1022.76 1022.55 1022.34
1014.75 1015.31 1015.90 1016.46 1016.96 1017.35 1017.63 1017.81 1017.94 1018.06 1018.25 1018.54 1018.96 1019.50 1020.14 1020.82 1021.49 1022.08 1022.54 1022.86 1023.04 1023.09 1023.06 1022.98 1022.89 1022.83 1022.80 1022.83 1022.90 1023.01 1023.13 1023.27 1023.39 1023.49 1023.57 1023.60 1023.58 1023.51 1023.39 1023.21 1023.00 1022.76 1022.52
1015.16 1015.71 1016.29 1016.84 1017.31 1017.67 1017.91 1018.04 1018.10 1018.15 1018.26 1018.48 1018.84 1019.33 1019.94 1020.62 1021.30 1021.93 1022.47 1022.87 1023.12 1023.26 1023.29 1023.26 1023.21 1023.16 1023.13 1023.13 1023.17 1023.24 1023.34 1023.45 1023.57 1023.67 1023.75 1023.80 1023.79 1023.73 1023.60 1023.41 1023.18 1022.92 1022.66
1015.43 1015.97 1016.52 1017.04 1017.50 1017.84 1018.06 1018.17 1018.20 1018.22 1018.29 1018.45 1018.74 1019.18 1019.73 1020.37 1021.04 1021.68 1022.25 1022.70 1023.03 1023.24 1023.35 1023.38 1023.37 1023.34 1023.32 1023.31 1023.32 1023.36 1023.42 1023.51 1023.61 1023.71 1023.79 1023.85 1023.86 1023.81 1023.69 1023.51 1023.26 1022.99 1022.70
1015.57 1016.08 1016.60 1017.10 1017.54 1017.88 1018.10 1018.22 1018.26 1018.27 1018.32 1018.45 1018.69 1019.05 1019.54 1020.11 1020.73 1021.35 1021.91 1022.39 1022.77 1023.05 1023.23 1023.33 1023.37 1023.38 1023.37 1023.35 1023.34 1023.35 1023.38 1023.44 1023.51 1023.60 1023.68 1023.75 1023.77 1023.74 1023.64 1023.46 1023.22 1022.94 1022.64
1015.60 1016.08 1016.57 1017.05 1017.47 1017.81 1018.05 1018.20 1018.27 1018.31 1018.36 1018.46 1018.66 1018.96 1019.36 1019.86 1020.40 1020.96 1021.50 1021.98 1022.39 1022.72 1022.96 1023.13 1023.24 1023.29 1023.31 1023.29 1023.27 1023.26 1023.25 1023.27 1023.31 1023.38 1023.45 1023.51 1023.55 1023.53 1023.45 1023.29 1023.07 1022.79 1022.49
1015.53 1015.98 1016.45 1016.90 1017.32 1017.67 1017.94 1018.13 1018.24 1018.32 1018.39 1018.49 1018.65 1018.89 1019.22 1019.62 1020.09 1020.57 1021.07 1021.53 1021.96 1022.32 1022.62 1022.86 1023.03 1023.13 1023.18 1023.19 1023.16 1023.13 1023.09 1023.07 1023.07 1023.10 1023.15 1023.20 1023.23 1023.22 1023.15 1023.02 1022.82 1022.56 1022.27
1015.40 1015.83 1016.27 1016.70 1017.12 1017.48 1017.78 1018.01 1018.18 1018.30 1018.40 1018.51 1018.65 1018.85 1019.11 1019.44 1019.82 1020.24 1020.68 1021.12 1021.54 1021.94 1022.28 1022.58 1022.80 1022.96 1023.05 1023.08 1023.07 1023.02 1022.95 1022.90 1022.86 1022.84 1022.85 1022.87 1022.88 1022.86 1022.80 1022.69 1022.52 1022.29 1022.04
1015.23 1015.64 1016.06 1016.48 1016.89 1017.27 1017.59 1017.86 1018.08 1018.25 1018.39 1018.52 1018.66 1018.84 1019.06 1019.33 1019.64 1020.00 1020.39 1020.80 1021.22 1021.62 1022.00 1022.33 1022.61 1022.81 1022.95 1023.01 1023.00 1022.95 1022.87 1022.79 1022.70 1022.64 1022.60 1022.58 1022.55 1022.52 1022.45 1022.35 1022.20 1022.01 1021.80
1015.04 1015.44 1015.84 1016.26 1016.66 1017.05 1017.40 1017.71 1017.96 1018.18 1018.36 1018.52 1018.68 1018.85 1019.05 1019.28 1019.55 1019.86 1020.21 1020.59 1020.99 1021.39 1021.78 1022.14 1022.45 1022.69 1022.86 1022.96 1022.97 1022.93 1022.85 1022.74 1022.63 1022.52 1022.43 1022.35 1022.29 1022.21 1022.13 1022.02 1021.88 1021.73 1021.56
1014.83 1015.23 1015.63 1016.04 1016.45 1016.84 1017.21 1017.54 1017.83 1018.08 1018.30 1018.50 1018.68 1018.87 1019.07 1019.28 1019.53 1019.81 1020.12 1020.47 1020.84 1021.22 1021.61 1021.97 1022.30 1022.57 1022.77 1022.89 1022.94 1022.92 1022.84 1022.73 1022.60 1022.46 1022.33 1022.20 1022.08 1021.96 1021.84 1021.71 1021.57 1021.43 1021.29
1014.61 1015.01 1015.43 1015.84 1016.26 1016.65 1017.03 1017.37 1017.69 1017.96 1018.21 1018.44 1018.65 1018.86 1019.07 1019.30 1019.53 1019.80 1020.08 1020.40 1020.73 1021.09 1021.44 1021.79 1022.12 1022.39 1022.61 1022.76 1022.84 1022.86 1022.81 1022.71 1022.58 1022.43 1022.27 1022.10 1021.92 1021.75 1021.58 1021.41 1021.25 1021.10 1020.97
1014.37 1014.80 1015.23 1015.65 1016.07 1016.47 1016.84 1017.19 1017.51 1017.80 1018.07 1018.33 1018.57 1018.80 1019.04 1019.27 1019.51 1019.76 1020.03 1020.31 1020.61 1020.92 1021.24 1021.56 1021.86 1022.13 1022.36 1022.54 1022.65 1022.71 1022.70 1022.64 1022.53 1022.39 1022.21 1022.01 1021.80 1021.57 1021.35 1021.13 1020.92 1020.75 1020.61
1014.12 1014.57 1015.02 1015.46 1015.88 1016.27 1016.64 1016.98 1017.30 1017.59 1017.87 1018.14 1018.40 1018.66 1018.92 1019.17 1019.42 1019.67 1019.92 1020.17 1020.44 1020.70 1020.98 1021.25 1021.52 1021.78 1022.01 1022.20 1022.35 1022.45 1022.49 1022.49 1022.42 1022.31 1022.14 1021.94 1021.70 1021.43 1021.15 1020.88 1020.63 1020.41 1020.23
1013.85 1014.33 1014.80 1015.25 1015.67 1016.06 1016.41 1016.74 1017.04 1017.32 1017.60 1017.87 1018.15 1018.43 1018.71 1018.98 1019.24 1019.49 1019.74 1019.97 1020.19 1020.42 1020.65 1020.88 1021.12 1021.35 1021.57 1021.78 1021.96 1022.10 1022.20 1022.26 1022.25 1022.18 1022.05 1021.86 1021.62 1021.34 1021.02 1020.71 1020.40 1020.13 1019.91
1013.57 1014.07 1014.55 1015.01 1015.43 1015.81 1016.15 1016.45 1016.73 1017.00 1017.27 1017.54 1017.82 1018.12 1018.41 1018.70 1018.98 1019.24 1019.48 1019.70 1019.91 1020.10 1020.30 1020.49 1020.69 1020.90 1021.11 1021.32 1021.53 1021.71 1021.86 1021.97 1022.03 1022.02 1021.95 1021.80 1021.58 1021.30 1020.98 1020.64 1020.29 1019.98 1019.70
1013.28 1013.79 1014.28 1014.74 1015.16 1015.53 1015.85 1016.13 1016.39 1016.64 1016.90 1017.17 1017.46 1017.76 1018.07 1018.38 1018.67 1018.95 1019.20 1019.42 1019.62 1019.80 1019.97 1020.13 1020.31 1020.49 1020.69 1020.90 1021.11 1021.32 1021.51 1021.67 1021.79 1021.85 1021.83 1021.75 1021.58 1021.34 1021.04 1020.70 1020.34 1019.99 1019.67
1012.98 1013.50 1013.99 1014.45 1014.86 1015.21 1015.52 1015.79 1016.04 1016.28 1016.53 1016.79 1017.09 1017.40 1017.72 1018.05 1018.36 1018.66 1018.92 1019.16 1019.36 1019.54 1019.70 1019.85 1020.01 1020.17 1020.35 1020.55 1020.76 1020.97 1021.18 1021.38 1021.54 1021.66 1021.71 1021.69 1021.59 1021.41 1021.16 1020.85 1020.51 1020.15 1019.82
Thickness
5746 5745 5743 5742 5741 5740 5740 5739 5738 5737 5736 5736 5735 5734 5734 5733 5732 5731 5730 5729 5729 5728 5728 5727 5726 5725 5725 5724 5724 5724 5722 5721 5720 5720 5719 5718 5717 5715 5715 5714 5713 5712 5710
5743 5742 5741 5740 5739 5738 5738 5737 5736 5735 5734 5734 5733 5733 5732 5731 5730 5729 5729 5728 5727 5726 5726 5725 5724 5724 5723 5723 5722 5722 5720 5719 5719 5718 5716 5715 5714 5713 5712 5711 5710 5709 5707
5742 5740 5738 5737 5737 5736 5735 5734 5733 5732 5731 5731 5730 5731 5730 5729 5728 5728 5727 5726 5725 5724 5724 5723 5722 5722 5722 5721 5720 5719 5718 5717 5716 5715 5714 5713 5711 5710 5709 5708 5707 5706 5705
5740 5738 5736 5735 5734 5734 5732 5731 5730 5728 5727 5727 5727 5727 5727 5727 5726 5726 5725 5724 5723 5722 5721 5721 5720 5720 5720 5719 5718 5717 5716 5715 5714 5712 5711 5710 5708 5707 5706 5705 5704 5703 5702
5738 5736 5734 5733 5732 5731 5729 5729 5726 5725 5723 5723 5723 5724 5723 5723 5724 5723 5722 5721 5721 5720 5719 5719 5719 5718 5718 5717 5716 5715 5714 5713 5711 5710 5709 5707 5706 5705 5703 5702 5701 5700 5699
5735 5733 5731 5730 5729 5727 5725 5724 5722 5721 5720 5720 5721 5719 5719 5720 5720 5720 5720 5719 5718 5717 5717 5717 5717 5716 5715 5715 5714 5713 5712 5710 5709 5707 5706 5705 5703 5702 5701 5700 5699 5697 5696
5732 5731 5729 5727 5725 5723 5722 5721 5719 5716 5715 5716 5713 5710 5712 5715 5716 5717 5717 5716 5715 5715 5714 5714 5714 5713 5712 5711 5711 5711 5710 5708 5706 5705 5703 5702 5701 5699 5698 5697 5696 5695 5694
5729 5728 5725 5723 5722 5720 5718 5717 5715 5712 5711 5712 5708 5702 5699 5702 5708 5713 5713 5712 5712 5711 5711 5711 5710 5709 5708 5708 5708 5708 5707 5705 5704 5702 5701 5699 5698 5696 5695 5694 5693 5692 5691
5726 5724 5722 5720 5718 5716 5714 5713 5712 5709 5706 5707 5707 5702 5694 5692 5697 5704 5707 5708 5707 5707 5707 5708 5707 5706 5706 5706 5706 5705 5704 5702 5701 5699 5697 5696 5695 5694 5693 5691 5690 5689 5688
5722 5720 5718 5717 5715 5713 5711 5710 5708 5707 5705 5702 5703 5704 5702 5700 5694 5692 5698 5702 5703 5703 5704 5704 5704 5703 5703 5703 5703 5702 5700 5699 5698 5696 5695 5693 5692 5691 5690 5689 5688 5687 5686
5718 5716 5715 5713 5711 5709 5708 5707 5705 5705 5704 5701 5700 5699 5699 5697 5696 5691 5688 5692 5696 5699 5700 5701 5701 5700 5699 5699 5699 5698 5697 5696 5694 5693 5691 5690 5689 5688 5687 5686 5685 5684 5683
5713 5712 5711 5709 5707 5705 5704 5704 5703 5702 5701 5700 5699 5698 5696 5694 5692 5690 5687 5687 5688 5693 5696 5697 5697 5696 5695 5695 5694 5694 5693 5692 5691 5689 5688 5687 5686 5685 5684 5683 5682 5681 5680
5708 5708 5707 5705 5703 5702 5702 5701 5700 5699 5699 5697 5696 5696 5695 5695 5694 5691 5688 5685 5684 5687 5690 5691 5693 5693 5692 5691 5690 5690 5689 5688 5687 5686 5685 5684 5682 5681 5680 5680 5679 5678 5677
5705 5705 5704 5702 5701 5699 5698 5697 5696 5696 5696 5695 5695 5694 5693 5693 5692 5691 5688 5684 5679 5679 5682 5685 5688 5689 5689 5688 5687 5686 5685 5684 5683 5682 5682 5681 5680 5679 5678 5677 5675 5674 5673
5703 5701 5700 5699 5698 5696 5695 5694 5692 5692 5692 5691 5691 5690 5690 5690 5689 5689 5688 5686 5680 5673 5674 5680 5682 5685 5685 5684 5684 5682 5681 5680 5680 5679 5678 5677 5677 5676 5675 5673 5672 5671 5670
5698 5697 5696 5695 5694 5693 5692 5690 5689 5688 5688 5687 5687 5686 5686 5686 5686 5685 5685 5683 5682 5677 5673 5677 5679 5682 5682 5681 5680 5679 5678 5677 5676 5676 5675 5674 5674 5673 5672 5671 5669 5668 5667
5694 5692 5691 5690 5689 5688 5688 5686 5685 5685 5684 5683 5683 5683 5682 5682 5681 5681 5681 5679 5678 5676 5672 5673 5675 5677 5677 5677 5676 5675 5674 5673 5673 5672 5672 5671 5671 5670 5669 5667 5666 5665 5664
5689 5688 5687 5686 5685 5684 5683 5682 5681 5680 5679 5679 5678 5678 5678 5678 5677 5676 5676 5675 5674 5673 5670 5668 5669 5670 5671 5672 5672 5671 5671 5670 5669 5669 5669 5668 5668 5667 5666 5664 5663 5663 5661
5683 5683 5682 5681 5680 5679 5678 5678 5677 5675 5675 5675 5674 5674 5674 5673 5671 5671 5671 5670 5669 5670 5668 5665 5664 5665 5666 5667 5666 5666 5666 5665 5666 5666 5665 5665 5665 5664 5663 5662 5661 5660 5659
5678 5678 5677 5676 5675 5675 5674 5673 5671 5670 5670 5670 5670 5669 5669 5669 5668 5667 5666 5665 5665 5663 5662 5660 5659 5659 5660 5661 5660 5659 5659 5660 5660 5662 5662 5661 5662 5661 5661 5659 5658 5657 5656
5673 5673 5672 5671 5671 5670 5669 5668 5667 5666 5665 5664 5664 5665 5665 5666 5665 5664 5663 5661 5660 5658 5656 5654 5653 5653 5654 5654 5654 5654 5653 5653 5655 5657 5657 5657 5658 5657 5657 5657 5655 5655 5653
5667 5666 5666 5666 5665 5666 5665 5664 5663 5661 5660 5659 5659 5659 5660 5660 5661 5660 5660 5659 5658 5655 5652 5650 5649 5649 5650 5650 5651 5650 5648 5646 5646 5652 5650 5652 5653 5653 5654 5654 5654 5652 5651
5660 5660 5660 5660 5659 5660 5660 5659 5658 5657 5655 5655 5654 5654 5655 5657 5656 5655 5655 5654 5654 5653 5653 5650 5647 5647 5648 5649 5647 5645 5644 5643 5644 5647 5645 5646 5648 5648 5651 5651 5651 5649 5648
5654 5654 5654 5653 5653 5654 5654 5653 5652 5652 5651 5651 5651 5651 5650 5651 5652 5650 5649 5648 5648 5649 5649 5648 5648 5648 5648 5647 5646 5644 5642 5641 5642 5643 5642 5640 5644 5645 5648 5648 5648 5647 5645
5649 5648 5648 5647 5647 5647 5647 5647 5647 5646 5645 5646 5647 5647 5647 5647 5647 5646 5643 5642 5642 5643 5644 5645 5645 5644 5644 5643 5642 5638 5636 5633 5633 5637 5639 5637 5639 5640 5642 5644 5645 5644 5642
5643 5642 5642 5642 5641 5641 5641 5641 5641 5640 5639 5640 5641 5641 5642 5642 5642 5640 5638 5637 5635 5636 5637 5638 5638 5638 5638 5638 5638 5636 5634 5630 5629 5630 5635 5633 5633 5633 5633 5638 5640 5640 5638